This demonstration page uses our WeatherBlox Daily Observations layout. Learn more.

40.92945, -100.16068

Hourly Observations for April 6, 2018

Temp ( °F °C ) Dew Point ( °F °C ) Humidity (%) Winds ( mph kmh ) Pressure ( in mb ) Visibility ( mi km ) Precip ( " mm )
12:15 am 00:15 Cloudy 42 5.8 32 -0.2 66 66 NE 10 17 30.09 1019 10 16.0934 0 0
12:35 am 00:35 Cloudy 42 5.5 32 0 68 68 NE 17 28 30.09 1019 10 16.0934 0 0
12:55 am 00:55 Cloudy 41 5 32 0.2 71 71 NE 16 26 30.09 1019 10 16.0934 0 0
1:15 am 01:15 Cloudy 40 4.7 33 0.3 73 73 NE 15 24 30.09 1019 10 16.0934 0 0
1:35 am 01:35 Cloudy 40 4.2 32 0.1 75 75 NE 14 22 30.09 1019 10 16.0934 0 0
1:55 am 01:55 Cloudy with Light Rain 38 3.3 33 0.4 82 82 NE 17 28 30.12 1020 10 16.0934 0 0
2:15 am 02:15 Cloudy with Light Rain 37 2.5 33 0.5 87 87 NE 14 22 30.12 1020 10 16.0934 0 0
2:35 am 02:35 Cloudy with Light Snow 34 1.3 32 0 91 91 NE 13 20 30.15 1021 4 6.43736 0.02 0.508
2:55 am 02:55 Cloudy with Light Snow 34 1 32 0 93 93 NE 14 22 30.12 1020 5 8.0467 0.04 1.016
3:15 am 03:15 Cloudy with Light Snow 33 0.8 31 -0.3 92 92 ENE 14 22 30.15 1021 7 11.26538 0.01 0.254
3:35 am 03:35 Cloudy 33 0.6 31 -0.7 91 91 ENE 15 24 30.18 1022 7 11.26538 0.01 0.254
3:55 am 03:55 Cloudy 32 0 29 -1.9 87 87 NE 17 28 30.18 1022 10 16.0934 0.01 0.254
4:15 am 04:15 Cloudy 32 0 28 -2.5 83 83 NE 15 24 30.18 1022 10 16.0934 0 0
4:35 am 04:35 Cloudy 32 -0.1 28 -2.5 84 84 NE 15 24 30.18 1022 10 16.0934 0 0
4:55 am 04:55 Cloudy 31 -0.3 27 -2.6 85 85 NNE 14 22 30.21 1023 10 16.0934 0 0
5:15 am 05:15 Cloudy 31 -0.6 27 -3 84 84 NNE 16 26 30.21 1023 10 16.0934 0 0
5:35 am 05:35 Cloudy 31 -0.8 27 -2.7 87 87 NNE 12 19 30.21 1023 10 16.0934 0 0
5:55 am 05:55 Cloudy with Light Snow 30 -1 27 -2.7 88 88 NE 12 19 30.21 1023 7 11.26538 0 0
6:15 am 06:15 Cloudy 30 -1 27 -2.7 88 88 NE 10 17 30.21 1023 7 11.26538 0 0
6:35 am 06:35 Cloudy 30 -1 27 -2.6 89 89 NE 9 15 30.21 1023 7 11.26538 0 0
6:55 am 06:55 Cloudy 30 -1 28 -2.5 90 90 NNE 8 13 30.21 1023 7 11.26538 0 0
7:15 am 07:15 Cloudy 30 -1 27 -2.6 89 89 NNE 8 13 30.24 1024 10 16.0934 0 0
7:35 am 07:35 Cloudy with Light Snow 30 -1 27 -2.6 89 89 NE 10 17 30.24 1024 7 11.26538 0 0
7:55 am 07:55 Cloudy 30 -1 27 -3 86 86 NNE 14 22 30.24 1024 10 16.0934 0 0
8:15 am 08:15 Cloudy 30 -1 26 -3.5 83 83 NNE 15 24 30.24 1024 10 16.0934 0 0
8:35 am 08:35 Cloudy 30 -1 26 -3.5 83 83 NNE 14 22 30.3 1026 10 16.0934 0 0
8:55 am 08:55 Cloudy 30 -1 26 -3.4 84 84 NNE 13 20 30.3 1026 10 16.0934 0 0
9:15 am 09:15 Cloudy 30 -1 26 -3.5 83 83 NNE 16 26 30.3 1026 10 16.0934 0 0
9:35 am 09:35 Cloudy 29 -1.6 24 -4.5 81 81 NNE 24 39 30.3 1026 10 16.0934 0 0
9:55 am 09:55 Cloudy 28 -2 24 -4.6 83 83 NNE 18 30 30.33 1027 10 16.0934 0 0
10:15 am 10:15 Windy with Snow Likely 28 -2.4 23 -5.2 81 81 NNE 23 37 30.33 1027 10 16.0934 0 0
10:35 am 10:35 Cloudy with Light Snow 27 -2.6 22 -5.6 80 80 NNE 18 30 30.33 1027 3 4.82802 0 0
10:55 am 10:55 Windy with Snow Likely 27 -2.7 22 -5.5 81 81 NNE 22 35 30.36 1028 2.5 4.02335 0 0
11:15 am 11:15 Windy with Snow Likely 26 -3.5 20 -6.8 78 78 NNE 23 37 30.39 1029 7 11.26538 0 0
11:35 am 11:35 Windy with Snow Likely 25 -4 19 -7.3 78 78 NNE 24 39 30.39 1029 10 16.0934 0 0
11:55 am 11:55 Cloudy with Light Snow 25 -4 20 -6.6 82 82 NNE 18 30 30.42 1030 0.75 1.207005 0 0
12:15 pm 12:15 Windy with Snow Likely 24 -4.4 19 -7 82 82 NNE 22 35 30.42 1030 3 4.82802 0 0
12:35 pm 12:35 Windy with Snow Likely 23 -4.8 18 -7.9 79 79 NNE 25 41 30.42 1030 2.5 4.02335 0 0
12:55 pm 12:55 Cloudy with Haze 23 -4.9 16 -8.8 74 74 NNE 23 37 30.42 1030 4 6.43736 0 0
1:15 pm 13:15 Cloudy 23 -5.1 16 -8.9 75 75 NNE 20 31 30.45 1031 7 11.26538 0 0
1:35 pm 13:35 Cloudy with Light Snow 22 -5.5 17 -8.5 80 80 NNE 18 30 30.45 1031 2 3.21868 0 0
1:55 pm 13:55 Windy with Snow Likely 20 -6.8 14 -10 78 78 NNE 22 35 30.48 1032 1.75 2.816345 0 0
2:15 pm 14:15 Windy with Snow Likely 19 -7.2 14 -10.2 79 79 NNE 21 33 30.48 1032 1.25 2.011675 0 0
2:35 pm 14:35 Windy with Snow Likely 19 -7.2 14 -10.1 80 80 N 22 35 30.48 1032 1.25 2.011675 0 0
2:55 pm 14:55 Cloudy with Light Snow 19 -7.1 14 -10.1 79 79 N 17 28 30.48 1032 1 1.60934 0 0
3:15 pm 15:15 Cloudy with Light Snow 19 -7.2 14 -10 81 81 N 18 30 30.48 1032 1.25 2.011675 0 0
3:35 pm 15:35 Cloudy with Light Snow 19 -7.1 13 -10.8 75 75 N 17 28 30.48 1032 1.5 2.41401 0 0
3:55 pm 15:55 Cloudy with Light Snow 19 -7 13 -10.5 76 76 N 16 26 30.48 1032 2.5 4.02335 0 0
4:15 pm 16:15 Cloudy 20 -6.5 12 -11 71 71 N 14 22 30.45 1031 7 11.26538 0 0
4:35 pm 16:35 Cloudy 21 -6 10 -12 63 63 N 15 24 30.45 1031 10 16.0934 0 0
4:55 pm 16:55 Cloudy 21 -6.1 10 -12.3 62 62 N 17 28 30.45 1031 10 16.0934 0 0
5:15 pm 17:15 Cloudy 21 -6 9 -12.9 59 59 N 18 30 30.45 1031 10 16.0934 0 0
5:35 pm 17:35 Cloudy 21 -6 10 -12.4 61 61 N 17 28 30.45 1031 10 16.0934 0 0
5:55 pm 17:55 Cloudy 22 -5.7 9 -12.7 58 58 N 17 28 30.42 1030 10 16.0934 0 0
6:15 pm 18:15 Cloudy 22 -5.8 9 -12.9 58 58 N 14 22 30.45 1031 10 16.0934 0 0
6:35 pm 18:35 Mostly Cloudy 22 -5.6 8 -13.1 56 56 NNE 14 22 30.42 1030 10 16.0934 0 0
6:55 pm 18:55 Partly Cloudy 21 -6 9 -12.9 59 59 N 13 20 30.48 1032 10 16.0934 0 0
7:15 pm 19:15 Mostly Cloudy 22 -5.7 10 -12.4 60 60 N 15 24 30.48 1032 10 16.0934 0 0
7:35 pm 19:35 Cloudy 21 -6.1 8 -13.1 58 58 N 13 20 30.48 1032 10 16.0934 0 0
7:55 pm 19:55 Cloudy 21 -6.2 9 -12.6 61 61 N 13 20 30.48 1032 10 16.0934 0 0
8:15 pm 20:15 Cloudy 21 -6.3 9 -12.7 61 61 N 10 17 30.48 1032 10 16.0934 0 0
8:35 pm 20:35 Mostly Cloudy 20 -6.5 9 -12.7 62 62 N 10 17 30.48 1032 10 16.0934 0 0
8:55 pm 20:55 Clear 20 -6.5 10 -12.5 63 63 N 12 19 30.48 1032 10 16.0934 0 0
9:15 pm 21:15 Clear 20 -6.6 10 -12.3 64 64 N 7 11 30.48 1032 10 16.0934 0 0
9:35 pm 21:35 Partly Cloudy 20 -6.6 10 -12 66 66 N 8 13 30.48 1032 10 16.0934 0 0
9:55 pm 21:55 Partly Cloudy 20 -6.6 10 -12.2 65 65 N 7 11 30.48 1032 10 16.0934 0 0
10:15 pm 22:15 Partly Cloudy 20 -6.5 10 -12 65 65 N 7 11 30.48 1032 10 16.0934 0 0
10:35 pm 22:35 Clear 20 -6.7 10 -12.1 66 66 N 7 11 30.48 1032 10 16.0934 0 0
10:55 pm 22:55 Clear 19 -7 11 -11.9 68 68 NNW 7 11 30.48 1032 10 16.0934 0 0
11:15 pm 23:15 Clear 19 -7 11 -11.5 71 71 NNW 7 11 30.48 1032 10 16.0934 0 0
11:35 pm 23:35 Clear 19 -7 11 -11.6 70 70 NNW 8 13 30.48 1032 10 16.0934 0 0
11:55 pm 23:55 Clear 19 -7 11 -11.9 68 68 NNW 7 11 30.48 1032 10 16.0934 0 0

Powered by AerisWeather